EZY101P EGNV-EGAA

Flight info

Callsign EZY101P
Flight time 0h 42m
Altitude 24000
Route SHAPP DCT BLACA DCT BELZU
Aircraft A20N/M-SDE2E3FGHIJ1RWXY/LB1

Departure

Time 2026-04-29 09:18
Airport Teesside International Airport (EGNV)

Arrival

Time 2026-04-29 10:00
Airport Belfast International Airport (EGAA)
Time Latitude Longitude Altitude Speed Heading
2026-04-29 08:59 54.51104 -1.43363 129 ft 0 kts 329°
2026-04-29 09:08 54.51104 -1.43362 129 ft 0 kts 329°
2026-04-29 09:08 54.51093 -1.43350 129 ft 2 kts 329°
2026-04-29 09:09 54.51080 -1.43337 129 ft 2 kts 329°
2026-04-29 09:09 54.51067 -1.43324 129 ft 2 kts 329°
2026-04-29 09:09 54.51054 -1.43310 129 ft 2 kts 329°
2026-04-29 09:09 54.51046 -1.43302 129 ft 2 kts 329°
2026-04-29 09:10 54.51038 -1.43282 129 ft 2 kts 274°
2026-04-29 09:10 54.51040 -1.43266 129 ft 0 kts 243°
2026-04-29 09:10 54.51044 -1.43255 129 ft 0 kts 239°
2026-04-29 09:10 54.51044 -1.43254 129 ft 0 kts 239°
2026-04-29 09:12 54.51037 -1.43273 129 ft 5 kts 239°
2026-04-29 09:12 54.51006 -1.43364 129 ft 9 kts 240°
2026-04-29 09:12 54.50969 -1.43476 129 ft 11 kts 239°
2026-04-29 09:13 54.50922 -1.43599 129 ft 12 kts 230°
2026-04-29 09:13 54.50851 -1.43705 129 ft 14 kts 214°
2026-04-29 09:13 54.50766 -1.43768 129 ft 11 kts 188°
2026-04-29 09:13 54.50686 -1.43811 129 ft 12 kts 221°
2026-04-29 09:14 54.50623 -1.43928 129 ft 14 kts 228°
2026-04-29 09:14 54.50553 -1.44058 129 ft 15 kts 227°
2026-04-29 09:14 54.50479 -1.44195 129 ft 14 kts 228°
2026-04-29 09:14 54.50425 -1.44301 129 ft 10 kts 228°
2026-04-29 09:15 54.50367 -1.44365 129 ft 8 kts 195°
2026-04-29 09:15 54.50316 -1.44360 129 ft 4 kts 160°
2026-04-29 09:15 54.50309 -1.44354 129 ft 0 kts 153°
2026-04-29 09:16 54.50308 -1.44353 129 ft 0 kts 153°
2026-04-29 09:16 54.50290 -1.44334 129 ft 7 kts 143°
2026-04-29 09:16 54.50248 -1.44265 129 ft 7 kts 125°
2026-04-29 09:16 54.50254 -1.44188 129 ft 6 kts 53°
2026-04-29 09:17 54.50261 -1.44173 129 ft 0 kts 51°
2026-04-29 09:17 54.50298 -1.44099 129 ft 33 kts 49°
2026-04-29 09:17 54.50663 -1.43425 129 ft 117 kts 48°
2026-04-29 09:17 54.51301 -1.42237 687 ft 141 kts 49°
2026-04-29 09:18 54.51949 -1.41036 1601 ft 143 kts 50°
2026-04-29 09:18 54.52753 -1.40053 2398 ft 157 kts 19°
2026-04-29 09:18 54.53872 -1.40387 3023 ft 186 kts 328°
2026-04-29 09:18 54.54607 -1.42357 3651 ft 213 kts 279°
2026-04-29 09:19 54.54627 -1.44968 4455 ft 228 kts 261°
2026-04-29 09:19 54.54423 -1.47759 5275 ft 246 kts 258°
2026-04-29 09:19 54.54205 -1.50777 6098 ft 266 kts 259°
2026-04-29 09:19 54.54021 -1.53997 7028 ft 280 kts 261°
2026-04-29 09:20 54.53874 -1.57310 8296 ft 281 kts 261°
2026-04-29 09:20 54.53748 -1.60580 9653 ft 277 kts 261°
2026-04-29 09:20 54.53630 -1.63789 10991 ft 272 kts 262°
2026-04-29 09:20 54.53509 -1.67025 11977 ft 280 kts 263°
2026-04-29 09:21 54.53386 -1.70520 12640 ft 299 kts 263°
2026-04-29 09:21 54.53265 -1.74164 13294 ft 316 kts 263°
2026-04-29 09:21 54.53141 -1.77960 14253 ft 322 kts 263°
2026-04-29 09:21 54.53014 -1.81818 15324 ft 323 kts 263°
2026-04-29 09:22 54.52883 -1.85734 16354 ft 325 kts 263°
2026-04-29 09:22 54.52751 -1.89611 17330 ft 327 kts 262°
2026-04-29 09:22 54.52614 -1.93552 18238 ft 331 kts 262°
2026-04-29 09:22 54.52474 -1.97502 19043 ft 336 kts 262°
2026-04-29 09:23 54.52350 -2.00987 19794 ft 338 kts 262°
2026-04-29 09:23 54.52206 -2.05012 20654 ft 340 kts 262°
2026-04-29 09:23 54.52059 -2.09085 21488 ft 341 kts 262°
2026-04-29 09:23 54.51910 -2.13147 22288 ft 343 kts 262°
2026-04-29 09:24 54.51759 -2.17259 23047 ft 346 kts 262°
2026-04-29 09:24 54.51606 -2.21367 23757 ft 348 kts 262°
2026-04-29 09:24 54.51449 -2.25530 24265 ft 350 kts 262°
2026-04-29 09:24 54.51292 -2.29680 24478 ft 350 kts 262°
2026-04-29 09:25 54.51132 -2.33895 24480 ft 349 kts 262°
2026-04-29 09:25 54.50973 -2.38045 24480 ft 349 kts 262°
2026-04-29 09:25 54.50810 -2.42228 24479 ft 349 kts 262°
2026-04-29 09:25 54.50647 -2.46368 24476 ft 349 kts 262°
2026-04-29 09:26 54.50482 -2.50518 24471 ft 349 kts 262°
2026-04-29 09:26 54.50316 -2.54737 24464 ft 349 kts 263°
2026-04-29 09:26 54.50285 -2.58881 24457 ft 352 kts 267°
2026-04-29 09:26 54.50463 -2.63090 24449 ft 355 kts 271°
2026-04-29 09:27 54.50862 -2.67382 24442 ft 359 kts 275°
2026-04-29 09:27 54.51483 -2.71707 24435 ft 361 kts 277°
2026-04-29 09:27 54.52158 -2.75949 24429 ft 361 kts 278°
2026-04-29 09:27 54.52847 -2.80218 24425 ft 361 kts 278°
2026-04-29 09:28 54.53524 -2.84405 24422 ft 361 kts 278°
2026-04-29 09:28 54.54218 -2.88699 24420 ft 361 kts 278°
2026-04-29 09:28 54.54901 -2.92940 24419 ft 361 kts 278°
2026-04-29 09:28 54.55592 -2.97243 24418 ft 361 kts 278°
2026-04-29 09:29 54.56231 -3.01235 24418 ft 361 kts 278°
2026-04-29 09:29 54.57564 -3.09598 24418 ft 361 kts 278°
2026-04-29 09:29 54.58228 -3.13781 24418 ft 361 kts 278°
2026-04-29 09:30 54.58894 -3.17983 24418 ft 361 kts 278°
2026-04-29 09:30 54.59563 -3.22221 24418 ft 361 kts 278°
2026-04-29 09:30 54.60218 -3.26377 24418 ft 361 kts 278°
2026-04-29 09:30 54.60878 -3.30578 24418 ft 361 kts 278°
2026-04-29 09:31 54.61534 -3.34765 24418 ft 361 kts 278°
2026-04-29 09:31 54.62186 -3.38934 24418 ft 361 kts 278°
2026-04-29 09:31 54.62837 -3.43109 24418 ft 361 kts 278°
2026-04-29 09:31 54.63490 -3.47304 24417 ft 361 kts 278°
2026-04-29 09:32 54.64134 -3.51457 24418 ft 361 kts 278°
2026-04-29 09:32 54.64790 -3.55696 24417 ft 361 kts 278°
2026-04-29 09:32 54.65435 -3.59875 24417 ft 361 kts 278°
2026-04-29 09:32 54.66072 -3.64013 24417 ft 361 kts 278°
2026-04-29 09:33 54.66700 -3.68109 24418 ft 361 kts 277°
2026-04-29 09:33 54.67345 -3.72339 24415 ft 361 kts 277°
2026-04-29 09:33 54.67989 -3.76567 24411 ft 361 kts 277°
2026-04-29 09:33 54.68624 -3.80745 24408 ft 361 kts 277°
2026-04-29 09:34 54.69265 -3.84964 24403 ft 361 kts 277°
2026-04-29 09:34 54.69896 -3.89136 24399 ft 361 kts 277°
2026-04-29 09:34 54.70528 -3.93319 24396 ft 361 kts 277°
2026-04-29 09:34 54.71158 -3.97494 24393 ft 361 kts 277°
2026-04-29 09:35 54.71796 -4.01733 24392 ft 361 kts 277°
2026-04-29 09:35 54.72426 -4.05936 24391 ft 361 kts 277°
2026-04-29 09:35 54.73048 -4.10092 24390 ft 361 kts 277°
2026-04-29 09:35 54.73673 -4.14281 24391 ft 361 kts 277°
2026-04-29 09:36 54.74299 -4.18482 24392 ft 361 kts 277°
2026-04-29 09:36 54.74926 -4.22706 24394 ft 361 kts 277°
2026-04-29 09:36 54.75552 -4.26930 24397 ft 361 kts 277°
2026-04-29 09:36 54.76168 -4.31102 24400 ft 361 kts 277°
2026-04-29 09:37 54.76790 -4.35321 24402 ft 361 kts 277°
2026-04-29 09:37 54.77408 -4.39532 24405 ft 361 kts 277°
2026-04-29 09:37 54.78029 -4.43769 24408 ft 361 kts 277°
2026-04-29 09:37 54.78639 -4.47940 24411 ft 361 kts 277°
2026-04-29 09:38 54.79255 -4.52171 24414 ft 361 kts 277°
2026-04-29 09:38 54.79870 -4.56399 24417 ft 361 kts 277°
2026-04-29 09:38 54.80478 -4.60597 24421 ft 361 kts 277°
2026-04-29 09:38 54.81090 -4.64839 24422 ft 361 kts 277°
2026-04-29 09:39 54.81693 -4.69029 24323 ft 361 kts 276°
2026-04-29 09:39 54.82296 -4.73220 23956 ft 358 kts 277°
2026-04-29 09:39 54.82921 -4.77581 23477 ft 356 kts 277°
2026-04-29 09:39 54.83512 -4.81715 22970 ft 353 kts 277°
2026-04-29 09:40 54.84097 -4.85809 22449 ft 350 kts 277°
2026-04-29 09:40 54.84678 -4.89898 22077 ft 352 kts 277°
2026-04-29 09:40 54.85264 -4.94051 21825 ft 355 kts 277°
2026-04-29 09:40 54.85852 -4.98217 21574 ft 356 kts 277°
2026-04-29 09:41 54.86445 -5.02418 21321 ft 356 kts 277°
2026-04-29 09:41 54.87034 -5.06608 21069 ft 356 kts 277°
2026-04-29 09:41 54.87576 -5.10792 20813 ft 353 kts 273°
2026-04-29 09:41 54.87658 -5.15008 20560 ft 345 kts 261°
2026-04-29 09:42 54.87205 -5.19059 20268 ft 340 kts 250°
2026-04-29 09:42 54.86316 -5.22810 19601 ft 337 kts 243°
2026-04-29 09:42 54.85277 -5.26481 18538 ft 343 kts 243°
2026-04-29 09:42 54.84254 -5.30021 17774 ft 319 kts 242°
2026-04-29 09:43 54.83294 -5.33337 16804 ft 304 kts 242°
2026-04-29 09:43 54.82370 -5.36525 16051 ft 287 kts 242°
2026-04-29 09:43 54.81490 -5.39557 15553 ft 280 kts 242°
2026-04-29 09:43 54.80622 -5.42543 15124 ft 276 kts 242°
2026-04-29 09:44 54.79769 -5.45477 14718 ft 272 kts 242°
2026-04-29 09:44 54.78925 -5.48377 14326 ft 268 kts 242°
2026-04-29 09:44 54.78092 -5.51233 13944 ft 264 kts 242°
2026-04-29 09:44 54.77261 -5.54077 13571 ft 261 kts 242°
2026-04-29 09:45 54.76453 -5.56842 13210 ft 257 kts 243°
2026-04-29 09:45 54.75661 -5.59550 12863 ft 253 kts 243°
2026-04-29 09:45 54.74862 -5.62278 12515 ft 250 kts 243°
2026-04-29 09:45 54.74087 -5.64922 12134 ft 248 kts 243°
2026-04-29 09:46 54.73354 -5.67416 11818 ft 245 kts 242°
2026-04-29 09:46 54.72592 -5.70003 11595 ft 237 kts 242°
2026-04-29 09:46 54.71853 -5.72513 11378 ft 230 kts 243°
2026-04-29 09:46 54.71142 -5.74927 11178 ft 223 kts 243°
2026-04-29 09:47 54.70446 -5.77287 10991 ft 216 kts 243°
2026-04-29 09:47 54.69770 -5.79579 10823 ft 208 kts 243°
2026-04-29 09:47 54.69124 -5.81765 10674 ft 200 kts 244°
2026-04-29 09:47 54.68503 -5.83869 10540 ft 192 kts 244°
2026-04-29 09:48 54.67900 -5.85907 10381 ft 191 kts 244°
2026-04-29 09:48 54.67291 -5.87965 10103 ft 191 kts 244°
2026-04-29 09:48 54.66684 -5.90013 9833 ft 191 kts 245°
2026-04-29 09:48 54.66082 -5.92040 9568 ft 190 kts 245°
2026-04-29 09:49 54.65483 -5.94058 9307 ft 189 kts 245°
2026-04-29 09:49 54.64887 -5.96062 9050 ft 189 kts 245°
2026-04-29 09:49 54.64282 -5.98097 8791 ft 189 kts 246°
2026-04-29 09:49 54.63685 -6.00103 8537 ft 189 kts 246°
2026-04-29 09:50 54.63080 -6.02134 8280 ft 189 kts 246°
2026-04-29 09:50 54.62471 -6.04176 8022 ft 190 kts 246°
2026-04-29 09:50 54.61867 -6.06197 7764 ft 190 kts 247°
2026-04-29 09:50 54.61282 -6.08281 7492 ft 196 kts 238°
2026-04-29 09:51 54.60656 -6.10373 7182 ft 198 kts 237°
2026-04-29 09:51 54.60012 -6.12483 6887 ft 199 kts 237°
2026-04-29 09:51 54.59365 -6.14609 6602 ft 200 kts 237°
2026-04-29 09:51 54.58720 -6.16739 6324 ft 200 kts 238°
2026-04-29 09:52 54.58078 -6.18867 6048 ft 201 kts 238°
2026-04-29 09:52 54.57438 -6.20991 5799 ft 200 kts 238°
2026-04-29 09:52 54.56797 -6.23118 5542 ft 199 kts 238°
2026-04-29 09:52 54.56156 -6.25247 5276 ft 199 kts 238°
2026-04-29 09:53 54.55517 -6.27365 5010 ft 199 kts 238°
2026-04-29 09:53 54.54881 -6.29472 4745 ft 199 kts 238°
2026-04-29 09:53 54.54242 -6.31585 4480 ft 199 kts 238°
2026-04-29 09:53 54.53611 -6.33676 4338 ft 194 kts 238°
2026-04-29 09:54 54.52982 -6.35759 4246 ft 195 kts 238°
2026-04-29 09:54 54.52354 -6.37832 4156 ft 195 kts 238°
2026-04-29 09:54 54.51732 -6.39899 4069 ft 196 kts 241°
2026-04-29 09:54 54.51456 -6.42234 3993 ft 203 kts 275°
2026-04-29 09:55 54.51989 -6.44462 3887 ft 208 kts 311°
2026-04-29 09:55 54.53152 -6.45883 3697 ft 204 kts 336°
2026-04-29 09:55 54.54440 -6.46862 3527 ft 203 kts 340°
2026-04-29 09:55 54.55751 -6.47805 3363 ft 203 kts 340°
2026-04-29 09:56 54.57059 -6.48653 3197 ft 200 kts 356°
2026-04-29 09:56 54.58376 -6.48294 3045 ft 189 kts 36°
2026-04-29 09:56 54.59235 -6.46688 2916 ft 178 kts 68°
2026-04-29 09:56 54.59684 -6.44766 2776 ft 171 kts 74°
2026-04-29 09:57 54.60082 -6.42889 2630 ft 164 kts 72°
2026-04-29 09:57 54.60515 -6.41089 2452 ft 162 kts 70°
2026-04-29 09:57 54.60974 -6.39323 2225 ft 161 kts 69°
2026-04-29 09:57 54.61447 -6.37565 2012 ft 160 kts 69°
2026-04-29 09:58 54.61911 -6.35846 1802 ft 159 kts 69°
2026-04-29 09:58 54.62366 -6.34161 1645 ft 148 kts 69°
2026-04-29 09:58 54.62790 -6.32583 1386 ft 141 kts 69°
2026-04-29 09:58 54.63184 -6.31117 1224 ft 127 kts 69°
2026-04-29 09:59 54.63536 -6.29807 1054 ft 117 kts 69°
2026-04-29 09:59 54.63871 -6.28558 924 ft 112 kts 69°
2026-04-29 09:59 54.64199 -6.27334 770 ft 111 kts 68°
2026-04-29 09:59 54.64523 -6.26129 616 ft 111 kts 68°
2026-04-29 10:00 54.64847 -6.24924 477 ft 110 kts 68°
2026-04-29 10:00 54.65167 -6.23739 330 ft 109 kts 67°
2026-04-29 10:00 54.65469 -6.22627 277 ft 87 kts 66°
2026-04-29 10:00 54.65653 -6.21923 277 ft 47 kts 65°
2026-04-29 10:01 54.65758 -6.21543 277 ft 21 kts 64°
2026-04-29 10:01 54.65818 -6.21361 277 ft 14 kts 40°
2026-04-29 10:01 54.65877 -6.21332 277 ft 6 kts 351°
2026-04-29 10:01 54.65908 -6.21354 277 ft 5 kts 336°
2026-04-29 10:02 54.65945 -6.21388 277 ft 6 kts 318°
2026-04-29 10:02 54.65961 -6.21471 277 ft 8 kts 263°
2026-04-29 10:02 54.65955 -6.21568 277 ft 8 kts 293°
2026-04-29 10:02 54.65993 -6.21621 277 ft 5 kts 335°
2026-04-29 10:03 54.66032 -6.21663 277 ft 7 kts 309°
2026-04-29 10:03 54.66047 -6.21724 277 ft 5 kts 290°
2026-04-29 10:03 54.66058 -6.21777 277 ft 2 kts 289°
2026-04-29 10:03 54.66060 -6.21788 277 ft 0 kts 289°